Theta_e
359 359 356 356 358 359 358 360 363 363 363 363 362 359 359 359 359 357 358 358 358 360 360 361 363 361 364 365 364 363 363 363 361 361 360 359 359 358 357 357 357 356 357
357 356 356 355 357 358 358 359 360 363 362 362 362 362 361 361 361 360 359 359 355 358 359 360 362 361 363 367 365 363 364 363 362 361 361 359 359 359 357 359 358 358 357
358 358 354 355 356 358 359 359 361 362 362 362 362 362 362 362 361 362 361 360 359 356 357 359 361 359 361 365 368 364 363 363 362 362 361 361 360 359 359 359 359 358 357
361 360 356 357 358 359 357 355 356 356 359 360 361 361 363 362 361 363 363 363 362 362 361 357 357 359 361 363 368 366 363 362 361 361 362 361 361 360 359 359 359 357 357
359 360 358 359 361 357 356 354 354 357 356 358 357 359 362 361 362 361 362 363 364 363 363 364 358 358 360 361 366 366 365 364 362 361 362 362 361 360 359 359 358 358 357
359 359 358 359 360 356 356 355 357 357 357 356 355 356 360 360 361 361 361 360 362 363 362 360 359 356 354 359 363 364 366 365 364 363 362 361 362 361 359 359 358 358 357
357 359 357 358 358 356 357 358 355 356 353 357 354 351 353 356 357 358 360 359 359 359 360 358 356 356 355 354 358 362 364 364 365 366 363 362 361 361 360 359 358 357 357
358 358 359 358 358 355 359 357 357 353 355 358 351 350 343 347 355 356 358 358 358 358 355 355 354 360 362 360 361 358 357 361 364 367 365 362 361 360 360 359 358 357 357
359 360 360 360 360 358 353 358 358 357 350 355 359 351 343 340 347 355 355 356 357 356 355 355 355 357 362 361 361 359 359 360 363 365 363 363 361 360 360 359 358 357 356
360 359 359 360 360 357 358 358 358 358 358 350 353 355 358 354 344 343 354 356 358 357 359 358 356 357 359 359 361 360 359 356 360 364 363 363 362 360 359 359 359 358 356
358 357 358 360 360 359 360 361 361 360 357 353 350 351 354 353 355 348 344 349 353 355 356 357 357 358 362 362 361 361 358 356 357 360 362 363 363 361 360 360 360 359 358
356 359 358 359 361 360 361 361 363 362 360 358 357 356 353 350 350 351 348 350 349 353 354 355 357 358 360 360 362 359 359 357 356 355 357 359 361 362 361 360 358 358 358
354 358 362 360 359 363 364 364 363 363 362 360 361 358 358 356 357 355 352 349 348 352 351 354 354 355 357 359 359 359 361 357 354 351 352 354 357 358 358 359 360 360 358
354 360 362 362 364 366 365 366 363 362 364 362 363 362 359 359 359 358 355 351 347 349 351 350 352 355 357 358 361 357 360 355 353 350 348 347 350 352 354 355 355 355 355
357 361 363 364 367 368 367 367 363 362 363 364 362 363 360 361 361 360 359 358 350 344 344 349 344 357 356 357 359 361 361 354 353 350 346 345 346 347 349 350 350 350 350
363 364 366 365 366 367 364 364 361 362 358 360 361 364 365 364 364 361 358 359 357 352 344 349 348 349 354 354 357 359 357 350 349 348 347 344 344 344 344 346 346 347 347
364 365 364 363 364 365 366 365 364 363 363 363 364 365 366 368 364 361 358 357 355 356 347 349 350 351 353 354 356 356 356 356 355 346 345 344 341 341 341 343 344 345 344
358 354 354 353 354 354 354 355 356 357 357 357 359 362 363 364 362 362 358 354 353 358 353 351 354 345 350 355 354 354 352 351 353 349 342 342 341 338 338 339 339 340 339
345 344 344 344 344 344 345 347 348 347 348 349 353 356 357 360 359 357 356 353 353 353 352 350 348 348 349 351 350 351 350 351 350 346 343 340 338 337 335 335 335 333 331
339 339 338 338 339 340 340 341 341 341 343 345 350 353 354 354 352 354 357 355 353 350 350 349 349 346 347 350 349 343 342 332 331 332 333 333 338 339 337 335 334 333 329
333 334 335 336 337 336 335 336 336 336 337 337 339 342 345 348 347 349 355 357 353 348 344 343 341 341 342 340 341 342 334 329 327 328 327 329 332 333 333 335 339 337 330
327 328 328 326 326 328 327 327 328 329 331 332 335 338 341 341 342 341 343 344 349 347 342 340 338 338 338 341 343 338 332 329 327 331 329 327 332 331 329 330 330 331 329
326 325 324 324 329 331 327 326 328 328 329 330 331 335 337 337 340 343 342 338 339 338 341 346 341 339 339 342 341 337 333 330 332 331 331 324 330 327 327 330 328 327 326
321 321 323 325 328 329 325 322 322 326 330 334 334 333 336 337 340 341 344 343 339 339 340 344 344 343 344 344 345 344 340 331 332 327 329 323 328 324 327 326 325 325 323
320 320 322 325 325 328 319 318 317 322 326 330 335 336 336 335 334 330 339 338 336 338 330 329 332 331 330 332 338 332 326 327 325 323 328 328 327 323 325 325 327 321 318
321 322 320 323 320 322 317 314 315 320 322 325 332 335 331 330 321 324 336 336 334 335 337 333 334 330 329 331 329 340 333 331 328 325 331 327 326 325 318 321 325 327 326
Wind_Speed
6 5 5 5 5 6 6 7 6 6 5 6 7 8 9 8 8 6 5 8 13 15 15 16 9 14 11 13 15 16 16 17 16 16 17 16 15 14 14 15 14 15 16
6 6 6 6 6 6 6 6 5 6 5 5 6 7 9 8 8 9 7 7 11 13 14 17 11 5 5 8 15 15 17 17 17 16 17 17 16 14 15 15 15 15 16
8 8 6 7 6 6 7 7 6 5 6 5 7 6 7 8 8 9 8 6 6 12 13 10 8 8 8 12 14 16 16 16 17 17 16 16 15 15 14 15 15 15 15
9 7 7 7 6 6 6 6 7 7 7 6 6 6 5 6 8 9 8 5 5 4 7 7 5 7 10 11 14 16 16 15 16 17 17 17 16 15 15 15 15 15 14
9 8 8 8 7 7 7 7 7 7 8 8 7 7 7 6 7 7 8 6 6 5 4 1 5 7 9 10 9 12 14 15 16 17 17 17 16 16 16 16 15 15 15
9 9 9 10 7 7 7 7 7 7 8 8 8 8 7 7 6 5 7 5 4 5 5 5 4 4 8 12 11 10 11 13 16 18 18 18 18 17 16 17 16 16 15
10 9 8 8 6 7 8 7 7 7 7 6 7 9 7 8 6 5 4 5 5 5 5 5 5 5 5 11 12 12 14 15 15 18 19 18 18 17 17 17 16 15 15
11 9 9 9 7 6 7 7 7 6 6 5 5 8 7 7 2 4 4 4 5 4 5 6 6 7 7 6 9 13 16 18 17 18 20 18 17 17 17 17 16 15 15
12 11 11 10 8 6 7 7 8 9 9 6 6 5 6 4 10 1 6 5 4 4 5 5 7 7 7 7 8 12 17 17 17 19 18 19 18 17 17 17 17 16 15
12 13 13 11 10 7 8 8 8 9 8 10 8 7 9 10 7 9 3 5 7 7 6 5 5 7 8 7 9 11 9 14 16 17 18 18 18 18 18 18 17 17 16
11 12 13 11 10 8 9 10 10 10 9 11 10 9 10 9 10 10 13 9 5 7 7 8 7 7 7 7 7 8 11 15 14 14 14 17 18 18 19 19 19 18 17
7 10 11 10 10 10 10 10 10 11 11 10 9 10 10 9 9 8 11 12 12 10 8 8 8 7 6 6 8 8 10 13 13 14 15 17 18 19 20 20 20 20 20
8 9 9 9 9 10 10 10 9 9 10 9 11 10 10 11 11 11 11 13 13 10 7 8 8 7 6 6 7 8 10 12 13 13 14 14 17 18 19 20 20 20 20
9 9 8 9 10 10 9 10 9 9 9 9 12 12 11 10 10 11 11 11 13 12 10 8 5 7 6 6 5 6 6 9 11 13 14 14 15 17 19 20 20 19 19
8 9 9 9 9 9 9 11 10 9 10 10 12 12 11 10 10 10 11 10 11 13 13 9 6 5 5 4 5 6 6 7 11 13 14 15 16 16 16 18 20 19 18
9 9 8 9 9 9 10 10 11 11 10 11 9 11 12 11 11 10 11 9 10 12 14 10 9 6 5 4 5 8 9 6 10 12 14 15 16 18 17 17 19 20 19
8 8 8 8 8 8 9 9 10 11 11 11 12 13 15 13 12 9 10 10 11 9 13 14 10 6 8 7 7 8 7 7 8 11 12 13 14 15 16 17 20 21 19
2 4 5 7 8 9 9 11 12 12 13 14 14 13 15 11 14 13 9 12 12 11 12 16 11 6 9 7 7 6 5 5 8 5 10 11 12 12 14 16 19 22 22
5 6 6 7 9 10 10 11 12 13 14 15 15 15 15 14 15 11 11 10 10 10 11 13 12 6 8 5 5 4 4 5 4 7 7 9 10 11 13 16 18 17 19
6 7 7 8 9 10 10 11 12 13 14 14 14 15 16 15 15 13 14 12 11 10 11 11 10 8 7 5 4 4 2 3 2 4 7 7 5 5 9 12 15 18 19
6 7 8 8 8 9 7 12 13 14 14 15 16 16 17 18 18 16 12 13 11 10 9 8 7 6 6 6 6 2 2 2 2 1 2 4 5 6 8 5 8 15 15
6 7 7 8 9 8 13 15 14 12 13 14 15 17 17 19 20 21 22 22 19 12 12 8 9 9 10 6 6 5 5 3 3 2 2 5 4 6 6 7 9 6 9
7 7 8 9 11 11 11 12 16 11 10 11 14 15 16 14 16 18 17 17 19 21 16 12 14 10 8 10 10 9 7 3 3 5 6 4 3 5 5 5 11 19 17
8 8 9 9 9 8 11 11 17 12 12 14 13 13 15 16 16 15 13 10 9 9 12 12 12 9 7 8 11 10 10 7 6 4 2 3 3 3 4 4 11 8 11
8 8 7 9 10 11 15 17 17 12 10 12 12 13 12 12 16 16 13 10 9 8 3 2 2 5 6 8 9 10 7 8 5 2 2 5 5 6 4 4 4 9 8
9 8 9 9 11 13 14 18 16 9 10 9 10 10 12 12 18 14 11 9 9 9 9 7 6 6 7 8 10 8 10 10 7 5 5 3 8 6 4 2 4 4 5
Wind_Direction
252 263 271 269 276 284 289 307 296 301 298 285 281 280 285 288 282 263 274 252 254 250 252 268 260 224 229 211 212 209 212 210 210 213 216 220 224 225 223 219 220 220 223
257 259 263 266 269 272 289 304 315 301 303 292 281 277 280 286 275 272 270 264 240 248 249 256 260 260 261 246 217 206 214 211 211 213 218 222 228 226 224 221 222 220 221
252 263 265 268 273 278 285 289 300 294 285 289 283 279 276 281 279 268 265 266 227 220 242 251 253 268 273 255 219 208 211 214 213 211 217 220 223 227 221 221 223 221 218
243 254 263 268 276 280 286 284 295 298 291 295 297 293 279 276 284 285 280 272 257 269 206 220 266 276 281 278 231 210 206 213 215 214 213 217 219 220 220 220 222 225 222
251 253 261 268 271 274 273 280 290 286 294 296 296 301 297 290 290 289 289 291 281 272 272 251 277 285 284 278 247 216 207 207 214 217 216 217 216 218 218 218 220 222 222
252 252 257 262 263 267 265 264 275 281 286 294 302 300 293 285 283 282 287 284 276 269 272 257 268 246 252 260 250 235 230 220 214 217 218 217 214 215 215 215 215 219 221
250 251 255 259 247 254 265 265 274 282 288 288 294 299 301 294 286 280 265 275 272 262 260 248 255 253 229 230 253 255 238 231 230 218 218 215 212 210 213 212 212 213 217
249 247 252 260 258 264 256 255 253 279 280 288 296 305 304 310 173 302 282 266 266 250 242 237 238 229 246 245 233 228 241 245 240 229 214 213 209 208 209 210 211 209 212
235 237 246 254 263 255 269 257 247 250 277 284 269 287 305 298 322 259 275 290 277 267 268 244 239 236 227 242 240 228 230 234 239 237 224 203 204 202 205 205 208 208 210
239 244 248 249 249 254 255 253 248 252 250 274 284 247 262 281 292 301 262 250 270 270 255 250 245 230 230 227 234 249 235 227 234 237 230 208 199 199 203 203 207 208 207
242 242 241 244 250 249 251 254 254 246 250 263 269 275 269 266 260 266 282 286 264 255 261 266 267 262 231 219 215 228 226 228 225 228 224 210 203 202 206 205 206 209 208
240 235 238 241 246 256 255 258 255 249 253 251 262 261 259 262 270 255 267 278 282 288 270 264 258 255 252 233 221 221 206 225 232 223 218 214 206 205 207 209 209 213 212
246 248 239 243 249 251 256 255 254 252 249 249 246 254 252 257 264 265 266 279 280 279 273 264 265 254 245 230 241 212 205 215 219 224 226 213 207 207 206 205 207 209 211
253 261 255 258 268 268 267 266 260 257 249 249 252 251 260 263 249 255 256 267 276 267 265 260 262 236 236 247 260 179 235 216 223 224 223 224 218 212 206 204 202 204 206
254 252 261 269 270 273 277 282 273 271 257 256 259 252 251 254 252 251 249 244 250 265 270 271 255 207 226 213 250 245 238 228 218 224 221 222 219 218 211 200 194 192 202
241 255 261 269 269 269 268 269 271 268 259 259 254 254 253 256 253 249 246 235 236 247 264 260 251 240 239 259 237 255 262 270 231 232 224 221 220 217 217 205 196 193 194
262 264 266 267 266 268 276 272 268 271 265 265 258 259 259 254 256 241 239 236 241 226 239 261 264 251 264 260 260 256 266 275 267 214 227 218 213 214 216 203 198 195 193
333 325 321 310 303 293 288 282 281 284 277 273 269 262 260 256 248 244 230 235 236 230 235 249 243 246 260 269 262 282 287 303 287 233 228 232 225 211 209 206 206 198 194
339 324 316 300 293 292 293 290 285 283 280 279 277 273 272 273 263 250 241 237 235 237 225 248 255 246 261 265 275 298 314 307 303 352 245 236 222 218 212 215 210 200 186
328 323 320 309 304 306 299 294 294 291 286 280 279 278 274 263 264 265 253 236 237 236 225 223 231 242 239 248 247 259 237 30 21 27 37 31 45 250 235 221 216 205 199
346 341 323 320 320 312 310 327 313 303 297 292 286 281 274 275 282 269 269 258 245 239 229 221 217 196 204 204 234 166 126 131 55 52 29 11 43 56 30 356 234 207 200
358 348 339 334 328 318 322 300 298 296 296 290 291 288 281 273 265 250 247 252 250 230 223 208 216 214 202 182 157 176 147 178 157 222 106 53 32 59 46 22 43 92 219
346 346 339 326 319 312 298 298 317 304 290 283 278 276 280 276 266 266 257 242 242 223 215 206 213 210 179 181 163 167 169 161 167 137 133 86 45 65 39 31 43 79 79
4 353 338 329 318 313 325 339 328 312 298 290 278 274 282 281 275 275 265 246 220 206 208 211 220 207 186 175 169 170 161 127 116 125 218 116 117 77 52 39 31 54 93
8 358 345 340 353 345 345 342 336 321 303 295 297 285 277 276 268 261 260 232 197 198 197 142 159 143 136 147 149 130 138 150 146 160 215 131 150 109 83 68 48 48 53
21 13 7 6 7 358 352 343 338 319 313 314 309 324 322 327 324 266 233 207 197 194 180 158 141 126 143 151 149 162 157 176 149 163 153 134 151 152 123 56 90 87 84